Location: Unspecified
(0.0000°N, 0.0000°E)
Time: 17:47:03
(UTC+00:00)

JUGNU - Visible Passes

Search period start: 10 February 2026 00:00
Search period end: 20 February 2026 00:00
Orbit: 833 x 860 km, 20.0° (Epoch: 10 February)

Date Brightness Start Highest point End Pass type
(mag) Time Alt. Az. Time Alt. Az. Time Alt. Az.
10 Feb ? 03:18:48 19° ESE 03:18:48 19° ESE 03:20:24 10° ESE visible
10 Feb ? 05:00:35 17° WSW 05:03:38 26° SSW 05:08:30 10° SE visible
11 Feb ? 03:03:35 12° ESE 03:03:35 12° ESE 03:04:02 10° ESE visible
11 Feb ? 04:45:22 20° SW 04:47:22 23° SSW 04:52:02 10° SE visible
12 Feb ? 04:30:08 21° SSW 04:31:07 21° SSW 04:35:33 10° SSE visible
13 Feb ? 04:14:53 20° SSW 04:14:53 20° SSW 04:19:04 10° SSE visible
14 Feb ? 03:59:38 18° S 03:59:38 18° S 04:02:36 10° SSE visible
14 Feb ? 05:47:26 10° SSW 05:48:28 10° S 05:49:32 10° S visible
15 Feb ? 03:44:22 15° S 03:44:22 15° S 03:46:06 10° SSE visible
15 Feb ? 05:31:55 10° S 05:32:17 10° S 05:32:40 10° S visible
15 Feb ? 20:06:17 10° NNW 20:07:29 13° N 20:07:29 13° N visible
16 Feb ? 03:29:07 11° SSE 03:29:07 11° SSE 03:29:36 10° SSE visible
16 Feb ? 19:49:45 10° NNW 19:52:23 15° N 19:52:23 15° N visible
17 Feb ? 19:33:15 10° NNW 19:36:53 17° NNE 19:37:19 16° NNE visible
18 Feb ? 19:16:45 10° NNW 19:20:38 18° NNE 19:22:18 16° NE visible
19 Feb ? 19:00:15 10° NNW 19:04:23 19° NNE 19:07:19 14° NE visible
19 Feb ? 20:48:02 10° NW 20:49:06 15° NW 20:49:06 15° NW visible
